| time (UTC) | temp F | wind direction | speed knots | gust knots | rain 1hr in | rain 24hr in | rain mn in | humidity % | barometer mb |
| 20260504214546 | 67 | 288 | 7.0 | 14.8 | 0.00 | 0.00 | 0.00 | 23 | 1001.6 |
| 20260504213040 | 68 | 273 | 0.0 | 0.0 | 0.00 | 0.00 | 0.00 | 23 | 1001.7 |
| 20260504211536 | 68 | 280 | 0.0 | 0.0 | 0.00 | 0.00 | 0.00 | 25 | 1001.8 |
| 20260504210030 | 67 | 293 | 0.0 | 0.0 | 0.00 | 0.00 | 0.00 | 25 | 1001.9 |
| 20260504204525 | 65 | 196 | 0.0 | 0.0 | 0.00 | 0.00 | 0.00 | 31 | 1002.2 |
| 20260504203021 | 64 | 215 | 0.0 | 0.0 | 0.00 | 0.00 | 0.00 | 30 | 1002.5 |
| 20260504201519 | 64 | 237 | 0.0 | 0.0 | 0.00 | 0.00 | 0.00 | 29 | 1002.7 |
| 20260504200017 | 63 | 196 | 0.0 | 0.0 | 0.00 | 0.00 | 0.00 | 33 | 1002.9 |
| 20260504194511 | 62 | 270 | 0.0 | 0.0 | 0.00 | 0.00 | 0.00 | 33 | 1003.2 |
| 20260504193003 | 61 | 223 | 0.0 | 0.0 | 0.00 | 0.00 | 0.00 | 32 | 1003.4 |
| 20260504191619 | 62 | 126 | 0.0 | 0.0 | 0.00 | 0.00 | 0.00 | 30 | 1003.4 |
| 20260504190055 | 61 | 360 | 0.0 | 0.0 | 0.00 | 0.00 | 0.00 | 29 | 1003.6 |
| 20260504184550 | 62 | 241 | 0.0 | 0.0 | 0.00 | 0.00 | 0.00 | 27 | 1002.9 |
| 20260504183046 | 62 | 215 | 0.0 | 0.0 | 0.00 | 0.00 | 0.00 | 27 | 1002.9 |
| 20260504181541 | 64 | 330 | 0.0 | 0.0 | 0.00 | 0.00 | 0.00 | 34 | 1003.1 |
| 20260504180121 | 64 | 329 | 0.0 | 0.0 | 0.00 | 0.00 | 0.00 | 31 | 1003.2 |
| 20260504174532 | 66 | 340 | 0.0 | 0.0 | 0.00 | 0.00 | 0.00 | 31 | 1003.3 |
| 20260504173027 | 66 | 160 | 0.0 | 0.0 | 0.00 | 0.00 | 0.00 | 34 | 1003.5 |
| 20260504171523 | 65 | 184 | 0.0 | 0.0 | 0.00 | 0.00 | 0.00 | 31 | 1003.8 |
| 20260504120119 | 34 | 92 | 0.0 | 0.0 | 0.00 | 0.00 | 0.00 | 1 | 1006.9 |
| 20260504081519 | 37 | 90 | 0.0 | 0.0 | 0.00 | 0.00 | 0.00 | 52 | 1006.3 |
| 20260504044525 | 48 | 90 | 0.0 | 0.0 | 0.00 | 0.00 | 0.00 | 42 | 1006.5 |
| 20260504043021 | 49 | 90 | 0.0 | 0.0 | 0.00 | 0.00 | 0.00 | 41 | 1006.5 |
| 20260504041516 | 51 | 90 | 0.0 | 0.0 | 0.00 | 0.00 | 0.00 | 41 | 1006.4 |
| 20260504040014 | 53 | 90 | 0.0 | 0.0 | 0.00 | 0.00 | 0.00 | 35 | 1006.2 |
| 20260504034510 | 54 | 90 | 0.0 | 0.0 | 0.00 | 0.00 | 0.00 | 35 | 1006.2 |
| 20260504033003 | 55 | 90 | 0.0 | 0.0 | 0.00 | 0.00 | 0.00 | 31 | 1006.1 |
| 20260504031601 | 56 | 90 | 0.0 | 0.0 | 0.00 | 0.00 | 0.00 | 30 | 1005.9 |
| 20260504030114 | 56 | 88 | 0.0 | 0.0 | 0.00 | 0.00 | 0.00 | 29 | 1005.8 |
| 20260504024551 | 57 | 88 | 0.0 | 0.0 | 0.00 | 0.00 | 0.00 | 30 | 1005.7 |
| 20260504023046 | 57 | 258 | 0.0 | 0.0 | 0.00 | 0.00 | 0.00 | 31 | 1005.6 |
| 20260504021546 | 59 | 258 | 0.0 | 0.0 | 0.00 | 0.00 | 0.00 | 30 | 1005.5 |
| 20260504020038 | 62 | 258 | 0.0 | 0.0 | 0.00 | 0.00 | 0.00 | 27 | 1005.4 |
| 20260504014532 | 64 | 258 | 0.0 | 0.0 | 0.00 | 0.00 | 0.00 | 25 | 1005.4 |
| 20260504013034 | 65 | 258 | 0.0 | 0.0 | 0.00 | 0.00 | 0.00 | 26 | 1005.4 |
| 20260504011523 | 66 | 258 | 0.0 | 0.0 | 0.00 | 0.00 | 0.00 | 26 | 1005.6 |
| 20260504010019 | 66 | 258 | 0.0 | 0.0 | 0.00 | 0.00 | 0.00 | 19 | 1005.8 |
| 20260504004532 | 66 | 258 | 0.0 | 0.0 | 0.00 | 0.00 | 0.00 | 21 | 1005.8 |
| 20260504003010 | 67 | 258 | 0.0 | 0.0 | 0.00 | 0.00 | 0.00 | 23 | 1005.8 |
| 20260504001519 | 68 | 251 | 0.0 | 0.0 | 0.00 | 0.00 | 0.00 | 16 | 1006.1 |
| 20260504000002 | 69 | 251 | 0.0 | 0.0 | 0.00 | 0.00 | 0.00 | 15 | 1006.2 |
| 20260503234557 | 69 | 302 | 0.0 | 0.0 | 0.00 | 0.00 | 0.00 | 15 | 1006.3 |
| 20260503233053 | 69 | 302 | 0.0 | 0.0 | 0.00 | 0.00 | 0.00 | 16 | 1006.4 |
| 20260503231548 | 69 | 302 | 0.0 | 0.0 | 0.00 | 0.00 | 0.00 | 14 | 1006.5 |
| 20260503230104 | 70 | 302 | 0.0 | 0.0 | 0.00 | 0.00 | 0.00 | 16 | 1006.6 |
| 20260503224540 | 70 | 243 | 0.0 | 0.0 | 0.00 | 0.00 | 0.00 | 16 | 1006.8 |
| 20260503223035 | 70 | 323 | 0.0 | 0.0 | 0.00 | 0.00 | 0.00 | 18 | 1007.0 |
| 20260503221534 | 69 | 249 | 0.0 | 0.0 | 0.00 | 0.00 | 0.00 | 18 | 1007.2 |
| 20260503220033 | 69 | 310 | 0.0 | 0.0 | 0.00 | 0.00 | 0.00 | 16 | 1007.5 |